Wind_Speed
35 35 36 37 39 41 41 43 43 45 46 48 50 52 54 54 52 51 50 48 45 43 42 38 38 37 35 33 30 29 27 26 28 31 31 32 30 29 33 39 43 47 47
38 38 39 41 43 45 45 47 47 48 50 50 50 50 51 51 50 48 47 46 43 39 37 32 29 28 26 25 25 25 27 29 30 31 31 30 28 29 30 32 33 38 42
42 41 43 46 48 48 48 49 50 50 50 49 47 46 45 44 46 49 49 45 39 36 31 29 27 25 27 25 27 27 28 28 28 27 24 26 26 28 33 36 36 36 37
43 45 48 50 51 51 52 52 51 48 44 42 42 39 38 44 48 52 50 45 37 30 29 28 30 28 27 26 27 28 26 21 19 22 23 26 26 29 30 32 34 35 35
47 50 52 53 54 54 53 50 45 41 40 41 40 35 39 44 45 45 36 28 26 26 28 29 27 24 23 22 16 14 17 18 21 24 26 26 26 28 30 27 30 35 38
53 55 57 57 57 55 50 44 41 40 40 40 36 35 39 39 36 28 20 17 18 23 24 22 22 18 13 14 14 16 19 22 24 25 25 26 28 27 25 29 29 28 27
57 59 60 59 56 51 47 42 40 38 38 36 35 32 36 34 27 22 17 12 14 16 17 16 13 12 13 13 16 20 22 22 21 21 22 24 26 26 24 27 24 26 31
59 59 59 60 57 51 47 41 38 37 37 34 33 30 30 29 22 19 14 12 12 12 11 10 12 12 14 17 19 18 18 17 17 19 20 21 21 23 23 25 23 25 31
55 59 62 62 58 51 45 39 36 35 33 32 31 29 26 22 16 14 13 13 12 11 11 12 13 14 16 18 17 15 15 15 16 17 18 18 16 18 21 20 19 20 24
57 51 55 51 48 42 38 35 33 32 30 29 29 27 25 24 19 15 13 13 16 14 14 14 14 16 19 17 15 15 15 15 14 13 12 14 13 14 18 19 19 22 21
44 46 51 45 39 34 29 31 31 31 29 28 28 26 24 24 23 22 19 13 14 13 14 13 14 17 18 16 16 15 14 12 8 5 7 9 11 11 14 17 20 23 26
40 41 44 41 33 29 27 29 31 30 28 26 26 26 25 24 24 24 22 20 18 15 13 13 15 16 16 15 16 16 15 14 11 10 11 12 13 14 15 18 20 21 24
40 40 39 39 35 31 29 30 30 27 26 27 26 27 25 24 23 26 27 26 23 22 20 17 18 19 17 17 19 19 19 17 18 19 18 20 21 21 19 18 20 22 21
38 38 36 37 37 34 31 29 26 25 25 27 26 27 25 25 25 25 26 29 29 27 25 24 23 23 23 22 21 23 24 22 23 24 24 24 26 26 27 26 26 22 21
37 35 35 34 34 35 31 27 26 27 26 27 27 28 26 27 27 28 29 28 30 31 31 30 29 27 26 27 28 26 26 27 27 27 27 28 31 31 30 29 29 28 26
36 35 34 35 35 33 33 31 30 32 31 32 29 29 29 30 30 30 30 31 29 32 33 36 35 32 32 30 31 31 31 32 32 30 32 33 34 34 34 31 31 30 29
40 39 39 38 37 36 35 35 38 38 38 36 34 32 32 33 33 34 34 33 33 33 32 39 39 38 37 36 35 36 36 36 37 36 36 36 37 37 36 36 34 33 33
42 41 41 40 40 41 38 38 37 38 41 40 38 36 35 37 37 37 37 35 36 37 35 36 39 40 41 42 41 40 39 39 38 38 38 37 39 40 39 39 39 38 36
48 46 46 45 44 42 41 42 40 40 40 40 42 42 42 42 42 41 40 38 37 38 39 38 41 43 43 43 43 42 40 39 40 40 40 41 41 42 41 41 41 41 42
51 50 49 48 48 48 47 45 42 43 43 44 44 45 45 44 44 44 42 40 39 39 39 39 40 43 43 43 41 40 40 38 39 38 39 37 37 38 37 37 38 37 37
55 53 53 53 52 51 51 49 47 44 44 45 45 44 44 45 45 44 43 42 40 39 39 40 38 38 40 41 38 36 35 34 36 38 41 42 42 43 44 45 45 45 45
60 60 58 56 56 53 55 53 52 53 50 47 46 48 46 44 45 47 46 44 43 42 42 43 41 39 40 40 40 39 41 43 46 49 50 49 50 50 50 51 50 50 50
65 64 62 61 59 57 57 57 57 56 56 56 55 52 52 51 50 48 49 49 47 47 47 47 46 47 46 46 46 49 50 52 55 55 54 52 53 54 54 55 55 55 55
66 65 64 64 62 63 63 62 63 62 62 61 60 62 62 60 58 56 56 55 55 54 53 55 54 54 55 56 55 55 56 57 56 56 56 54 54 56 57 59 60 62 62
69 69 68 67 67 67 69 69 70 68 68 69 69 65 65 67 66 60 57 59 59 60 61 59 58 55 55 55 53 53 53 54 54 55 56 56 57 58 59 61 63 64 66
69 69 70 72 72 73 74 75 74 72 71 72 72 71 68 67 67 65 63 60 59 59 57 56 58 59 58 56 55 55 55 54 56 56 56 57 59 62 62 64 65 64 63
Wind_Direction
315 314 313 313 311 309 306 304 304 302 300 298 296 294 293 293 293 291 291 290 288 285 284 284 281 282 281 279 277 278 277 274 280 285 287 288 290 291 285 277 272 267 263
315 313 311 309 306 306 307 306 306 303 301 299 299 298 297 298 297 294 291 287 285 285 283 284 281 279 275 273 275 274 275 278 280 282 285 286 286 288 289 287 281 273 268
315 312 309 307 305 306 305 305 303 302 302 302 303 303 302 300 298 295 289 284 282 282 278 279 275 275 276 274 276 279 281 281 282 285 283 287 290 293 291 284 281 276 274
310 309 306 303 304 305 305 304 304 304 305 306 305 302 302 305 304 299 288 276 274 277 276 278 277 278 272 275 280 282 281 281 282 284 283 291 283 291 302 289 283 277 275
306 303 303 304 305 306 306 304 304 304 304 305 303 303 306 311 309 309 291 262 265 271 279 278 275 273 275 279 281 283 284 285 284 286 285 291 292 293 294 301 291 282 275
303 305 306 306 305 305 303 302 302 302 304 303 306 303 309 316 320 328 313 281 271 277 279 279 276 276 267 280 283 286 288 287 287 288 288 288 293 295 296 302 296 293 297
305 307 306 304 305 304 302 300 301 301 304 305 308 307 314 320 322 329 325 307 294 285 283 278 268 265 274 278 285 292 291 289 288 291 292 296 294 294 297 309 302 318 313
307 306 305 305 303 300 298 296 300 302 303 303 309 307 315 325 326 325 318 309 298 290 281 264 271 274 277 285 295 297 296 292 289 291 292 296 298 300 304 316 313 322 317
308 308 309 307 299 292 293 295 299 300 301 301 309 306 309 316 324 327 318 310 297 291 282 279 278 282 291 300 299 298 297 295 293 294 294 297 304 310 313 326 335 329 334
308 312 321 317 308 300 297 295 297 299 296 298 307 309 303 303 304 305 306 303 299 296 285 283 286 292 294 291 287 291 294 298 299 302 299 297 306 313 314 329 344 350 331
307 318 328 324 319 308 303 298 297 296 294 299 306 307 302 294 293 298 303 298 295 288 282 280 289 298 296 289 285 287 290 287 289 313 326 334 338 329 321 337 347 353 349
308 318 330 329 321 312 306 300 298 295 294 297 303 307 302 297 288 284 288 291 291 286 281 280 287 294 297 289 286 287 279 270 275 291 306 316 328 340 350 350 350 359 356
313 316 324 333 322 311 306 302 298 296 298 292 299 304 299 297 295 285 278 279 280 280 280 278 282 284 286 285 280 280 278 281 278 283 294 303 315 325 333 341 347 353 359
311 313 317 324 330 319 309 303 297 297 299 293 291 295 297 293 291 291 290 273 272 274 277 278 277 279 281 282 281 278 277 279 281 283 288 292 301 311 318 325 330 339 351
306 312 317 316 318 321 318 310 299 297 298 298 293 289 291 293 293 290 287 288 271 264 271 270 272 273 277 282 283 281 281 280 278 278 280 284 292 298 304 310 316 322 330
300 303 308 312 312 309 308 304 299 296 296 295 292 289 287 289 291 290 289 285 283 270 264 269 271 274 277 278 281 282 280 280 280 278 279 281 284 289 295 299 305 309 313
300 302 303 304 303 301 300 296 294 292 293 291 289 287 288 286 286 285 286 285 282 279 273 269 270 272 274 276 277 278 278 278 280 280 280 281 284 287 290 294 296 298 301
301 303 302 301 301 300 296 294 291 291 292 290 288 286 284 284 284 284 283 284 281 278 274 272 272 273 274 276 277 279 280 282 282 283 283 282 283 285 287 289 290 291 290
296 295 295 297 298 298 296 294 291 290 287 286 287 290 290 287 285 284 282 282 281 278 277 275 275 274 275 277 280 279 280 280 280 282 282 283 283 284 286 286 285 286 287
289 289 289 289 290 292 294 294 289 288 286 286 285 285 285 286 287 286 285 283 281 279 278 277 277 278 280 279 279 280 280 280 281 282 283 285 287 288 289 289 289 287 286
286 286 287 286 285 286 287 287 288 287 284 284 282 281 281 281 282 281 282 281 279 279 278 276 275 275 275 277 279 281 280 281 282 285 288 288 287 288 287 286 285 283 282
283 284 285 283 282 281 281 282 283 284 285 281 278 279 278 276 276 276 276 275 274 274 274 274 273 273 273 276 278 278 278 279 282 285 285 285 286 286 285 284 283 284 286
281 281 280 279 276 275 274 276 278 279 282 284 282 278 275 276 275 274 274 273 271 270 270 271 273 273 272 274 275 276 278 281 282 284 283 286 287 287 286 286 286 286 287
278 278 278 278 276 274 273 274 276 277 279 278 279 281 281 277 275 275 276 274 275 273 273 273 273 274 276 277 277 279 281 280 280 283 284 286 287 287 288 290 291 292 293
277 277 277 277 275 274 274 274 274 275 277 279 279 276 279 281 281 280 278 277 277 274 277 277 277 276 275 274 277 280 281 282 283 286 287 287 288 289 291 293 295 295 295
277 276 277 276 276 275 275 275 274 275 275 275 275 276 276 277 278 277 276 276 272 270 271 271 273 274 277 279 281 282 284 285 287 287 287 288 290 291 294 294 293 294 291
Height
5850 5847 5845 5841 5838 5834 5830 5826 5822 5818 5814 5810 5806 5802 5797 5793 5788 5784 5780 5778 5776 5773 5771 5769 5767 5766 5765 5764 5764 5764 5764 5764 5763 5763 5761 5760 5757 5755 5754 5753 5753 5753 5754
5844 5841 5838 5834 5830 5826 5822 5818 5813 5809 5804 5800 5796 5792 5787 5782 5777 5773 5769 5767 5766 5764 5762 5760 5759 5758 5757 5757 5756 5756 5756 5756 5755 5754 5753 5752 5750 5748 5746 5745 5743 5743 5743
5838 5835 5831 5827 5822 5818 5813 5808 5804 5799 5795 5791 5787 5782 5777 5772 5767 5762 5757 5755 5756 5754 5753 5753 5751 5751 5751 5750 5750 5749 5749 5748 5747 5747 5746 5745 5744 5742 5739 5737 5735 5734 5733
5831 5827 5822 5818 5813 5808 5803 5799 5795 5789 5785 5782 5777 5773 5768 5763 5756 5748 5743 5742 5744 5746 5745 5745 5745 5744 5744 5744 5744 5742 5742 5742 5741 5741 5740 5739 5737 5735 5732 5729 5726 5725 5724
5823 5819 5814 5809 5804 5799 5794 5789 5785 5781 5777 5773 5769 5764 5760 5753 5745 5734 5725 5728 5734 5737 5738 5738 5737 5738 5738 5738 5738 5738 5738 5737 5737 5736 5734 5733 5731 5728 5726 5723 5720 5717 5715
5814 5810 5805 5799 5794 5789 5785 5781 5777 5772 5769 5765 5761 5757 5752 5745 5737 5729 5724 5725 5728 5730 5731 5731 5731 5732 5733 5734 5734 5733 5733 5732 5732 5730 5729 5727 5724 5722 5719 5716 5711 5708 5706
5806 5800 5794 5789 5784 5779 5776 5773 5768 5764 5760 5758 5754 5751 5745 5739 5733 5729 5726 5725 5725 5725 5726 5726 5727 5728 5729 5730 5730 5729 5728 5727 5726 5725 5723 5721 5718 5715 5712 5708 5704 5700 5697
5796 5790 5784 5778 5774 5769 5766 5764 5760 5757 5754 5751 5748 5745 5740 5736 5730 5727 5725 5724 5723 5723 5723 5724 5725 5725 5726 5726 5725 5724 5723 5721 5721 5719 5718 5715 5713 5711 5708 5702 5698 5694 5689
5787 5780 5772 5765 5758 5755 5755 5754 5751 5749 5746 5745 5742 5739 5735 5733 5730 5727 5725 5724 5722 5721 5721 5722 5722 5722 5722 5722 5720 5720 5718 5717 5716 5715 5713 5711 5709 5707 5703 5697 5693 5688 5682
5778 5771 5762 5752 5745 5743 5744 5744 5743 5741 5740 5738 5736 5733 5730 5728 5727 5725 5724 5723 5722 5721 5720 5719 5720 5719 5719 5718 5716 5716 5714 5713 5712 5710 5708 5706 5705 5703 5699 5694 5690 5684 5678
5769 5762 5754 5745 5739 5736 5735 5736 5736 5734 5733 5732 5730 5727 5725 5723 5722 5721 5719 5720 5719 5718 5717 5717 5717 5716 5715 5714 5714 5713 5711 5710 5709 5708 5706 5704 5702 5700 5696 5691 5686 5682 5676
5761 5756 5748 5740 5735 5731 5730 5729 5728 5727 5727 5726 5725 5722 5720 5718 5717 5717 5716 5715 5714 5714 5713 5713 5713 5712 5711 5710 5710 5709 5708 5707 5706 5705 5703 5701 5699 5697 5694 5689 5684 5680 5675
5754 5748 5742 5737 5732 5728 5724 5723 5721 5721 5721 5720 5719 5717 5715 5713 5712 5711 5711 5710 5710 5709 5708 5708 5708 5707 5706 5705 5705 5705 5704 5703 5702 5701 5699 5697 5695 5693 5690 5688 5684 5680 5676
5746 5741 5735 5731 5728 5724 5720 5717 5715 5714 5714 5713 5712 5711 5709 5708 5706 5705 5704 5704 5704 5702 5702 5701 5701 5701 5701 5700 5699 5698 5697 5697 5696 5695 5694 5692 5690 5688 5685 5682 5680 5678 5674
5738 5734 5729 5725 5721 5719 5716 5713 5711 5709 5707 5706 5705 5704 5702 5701 5699 5698 5697 5696 5696 5696 5694 5693 5694 5694 5693 5693 5691 5691 5690 5689 5689 5688 5687 5686 5683 5681 5680 5678 5676 5674 5672
5729 5725 5721 5718 5715 5712 5710 5709 5706 5704 5702 5698 5696 5695 5694 5693 5692 5691 5689 5688 5687 5687 5688 5684 5684 5684 5684 5684 5683 5682 5682 5681 5680 5681 5679 5678 5676 5674 5672 5672 5670 5669 5668
5720 5716 5713 5710 5707 5704 5702 5700 5699 5697 5694 5691 5688 5687 5685 5684 5684 5682 5681 5680 5679 5678 5679 5676 5675 5675 5675 5674 5674 5673 5672 5672 5671 5670 5670 5669 5667 5667 5666 5664 5664 5663 5662
5707 5704 5701 5699 5697 5695 5692 5691 5689 5686 5685 5683 5681 5678 5676 5674 5674 5673 5672 5671 5670 5668 5669 5668 5666 5665 5665 5664 5664 5664 5663 5661 5661 5660 5659 5659 5658 5656 5656 5656 5655 5654 5654
5696 5693 5690 5687 5685 5683 5681 5680 5678 5676 5673 5672 5671 5669 5667 5665 5664 5662 5661 5661 5659 5658 5657 5658 5655 5654 5654 5653 5653 5652 5652 5652 5650 5649 5648 5647 5646 5646 5645 5644 5644 5644 5643
5684 5681 5678 5676 5673 5670 5668 5666 5666 5664 5663 5660 5658 5657 5655 5653 5652 5651 5650 5649 5648 5647 5646 5645 5645 5642 5641 5641 5642 5641 5640 5641 5639 5638 5636 5636 5635 5634 5634 5633 5632 5632 5631
5671 5668 5666 5663 5661 5658 5656 5653 5652 5650 5650 5649 5647 5644 5642 5641 5639 5638 5637 5636 5636 5635 5635 5633 5632 5631 5629 5628 5629 5629 5628 5628 5628 5627 5626 5625 5624 5623 5622 5621 5620 5619 5618
5656 5654 5651 5649 5648 5644 5643 5640 5638 5637 5635 5635 5634 5633 5631 5629 5626 5624 5624 5623 5622 5622 5622 5620 5620 5620 5618 5618 5617 5616 5616 5615 5614 5613 5613 5612 5610 5609 5607 5606 5605 5605 5604
5639 5637 5635 5633 5630 5628 5626 5625 5623 5621 5620 5619 5619 5619 5617 5615 5614 5612 5610 5609 5608 5607 5607 5606 5606 5604 5605 5604 5604 5602 5601 5600 5600 5599 5598 5597 5596 5594 5593 5591 5591 5590 5589
5620 5619 5617 5616 5614 5611 5609 5608 5607 5605 5603 5602 5600 5601 5601 5600 5599 5598 5597 5595 5593 5592 5591 5591 5592 5590 5589 5588 5587 5586 5586 5585 5585 5584 5582 5583 5580 5579 5577 5575 5574 5572 5571
5601 5599 5596 5595 5594 5592 5590 5588 5588 5586 5585 5584 5583 5580 5581 5581 5580 5581 5581 5580 5578 5576 5576 5575 5573 5572 5573 5572 5572 5571 5569 5570 5569 5568 5566 5566 5563 5562 5561 5558 5555 5553 5551
5580 5577 5575 5573 5571 5570 5568 5567 5565 5565 5564 5564 5561 5561 5560 5560 5561 5560 5560 5561 5560 5558 5559 5558 5557 5556 5555 5553 5553 5553 5553 5553 5552 5551 5548 5548 5545 5543 5542 5538 5536 5532 5530